Location: Alafon
(8.4500°N, 4.2333°E)
Time: 01:49:51
(UTC+00:00)

IRS-1A Rocket - Pass Details

Date: 05 July 2020
Orbit: 851 x 931 km, 99.2° (Epoch: 06 August)

Event Time Altitude Azimuth Distance (km) Brightness Sun altitude
Exits shadow 19:42:41 45° 145° (SE) 1,166 4.5 -22.4°
Maximum altitude 19:44:24 71° 77° (ENE) 908 4.1 -22.8°
Drops below altitude 10° 19:49:51 10° 353° (N) 2,476 7.1 -24.0°
Sets 19:52:13 0° 351° (N) 3,408 7.9 -24.5°
